MMTJKPSP

Guest
Details From MMTJ - GENERAL ABELARDO L RODRIGUEZ INTL
To KPSP - Palm Springs Intl
Flight Number -
Tags generated
Created
Modified
Stats Distance 81 nm / 150 km
Max Altitude 200 ft / 61 m
Waypoints 3
Social Downloads 0
Likes 0
Share VATSIM

Download

Looking for another format? Having issues loading an existing format? Contact us
Advertisement - Login to hide

Notes

Basic altitude profile: - Ascent Rate: 800ft/min - Ascent Speed: 290kts - Cruise Altitude: 32000ft - Cruise Speed: 310kts - Descent Rate: 8000ft/min - Descent Speed: 300kts Options: - Use NATs: yes - Use PACOTS: yes - Use low airways: no - Use high airways: yes

Route

MMTJ TIJ01 KPSP

ID Type Via Altitude Latitude Longitude Leg Dist Tot Dist Heading (true) Name
O MMTJ APT - 0 ft / 0 m 32.54106˚ -116.97016˚ - 0 nm - GENERAL ABELARDO L RODRIGUEZ INTL
TIJ01 FIX - 200 ft / 61 m 32.55217˚ -116.96736˚ 0 nm 0 nm 12° / 12° -
O KPSP APT - 0 ft / 0 m 33.82968˚ -116.50622˚ 80 nm 80 nm 17° / 17° Palm Springs Intl

Altitude Profile

Advertisement - Login to hide

MMTJ

Details ICAO MMTJ (TIJ)
Name GENERAL ABELARDO L RODRIGUEZ INTL
Region Mexico
Timezone America/Tijuana (UTC-7.0)
Stats Elevation 489 ft / 149 m (AMSL)
Location 32.541063° -116.970158°
Runways 1
Magnetic Variation 11.406° E

METAR

MMTJ 201847Z 00000KT 7SM BKN020 18/13 A2997 RMK 8/500 HZY

Decode

TAF

TAF MMTJ 201117Z 2012/2118 00000KT 6SM HZ OVC020 TX19/2020Z TN14/2012Z FM201600 30010KT P6SM BKN020 FM210300 30005KT 6SM HZ BKN015 FM211500 30010KT P6SM BKN020

Decode

Departure Runways

ID Width Length Bearing (true) Bearing (mag) Surface Threshold Offset Overrun Length
09 144 ft / 44 m 9,660 ft / 2,944 m 98.85° 87.44° Concrete 0 ft / 0 m 180 ft / 55 m
27 144 ft / 44 m 9,660 ft / 2,944 m 278.86° 267.45° Concrete 0 ft / 0 m 180 ft / 55 m

KPSP

Details ICAO KPSP (PSP)
Name Palm Springs Intl
Region United States
Timezone America/Los_Angeles (UTC-7.0)
Stats Elevation 477 ft / 145 m (AMSL)
Location 33.829677° -116.506218°
Runways 2
Magnetic Variation 11.542° E

METAR

KPSP 201853Z VRB04KT 10SM CLR 31/07 A2980 RMK AO2 SLP088 T03110067

Decode

TAF

TAF KPSP 201734Z 2018/2118 33007KT P6SM SKC FM202200 33014G22KT P6SM SKC FM210700 33009KT P6SM SKC FM211100 VRB04KT P6SM SKC

Decode

Destination Runways

ID Width Length Bearing (true) Bearing (mag) Surface Threshold Offset Overrun Length
13L 75 ft / 23 m 4,958 ft / 1,511 m 143.52° 131.98° Asphalt 0 ft / 0 m 151 ft / 46 m
13R 151 ft / 46 m 10,012 ft / 3,052 m 143.52° 131.98° Asphalt 2,999 ft / 914 m 200 ft / 61 m
31L 151 ft / 46 m 10,012 ft / 3,052 m 323.53° 311.99° Asphalt 1,499 ft / 457 m 200 ft / 61 m
31R 75 ft / 23 m 4,958 ft / 1,511 m 323.53° 311.99° Asphalt 0 ft / 0 m 151 ft / 46 m

Popular Alternatives